CDT,Max TemperatureF,Mean TemperatureF,Min TemperatureF,Max Dew PointF,MeanDew PointF,Min DewpointF,Max Humidity, Mean Humidity, Min Humidity, Max Sea Level PressureIn, Mean Sea Level PressureIn, Min Sea Level PressureIn, Max VisibilityMiles, Mean VisibilityMiles, Min VisibilityMiles, Max Wind SpeedMPH, Mean Wind SpeedMPH, Max Gust SpeedMPH,PrecipitationIn, CloudCover, Events, WindDirDegrees
2012-5-1,87,72,56,62,58,52,94,71,39,29.77,29.65,29.49,10,8,2,24,15,32,0.51,4,Rain-Thunderstorm,168
2012-5-2,80,68,56,69,64,56,96,84,64,29.71,29.66,29.58,10,10,7,15,8,20,0.01,3,,131
2012-5-3,86,75,63,68,64,58,93,71,48,29.82,29.75,29.65,10,9,4,22,7,25,0.17,2,Rain-Thunderstorm,147
2012-5-4,87,75,62,68,62,58,90,68,46,29.86,29.80,29.73,10,10,10,35,10,43,0.06,2,Rain-Thunderstorm,98
2012-5-5,93,78,63,72,66,61,94,71,31,29.86,29.76,29.67,10,10,8,21,10,28,0.00,3,,117
2012-5-6,78,65,52,69,58,47,90,76,58,30.07,29.93,29.72,10,10,6,31,15,41,0.25,6,Rain-Thunderstorm,341
2012-5-7,71,60,49,48,40,33,86,52,19,30.12,30.07,30.01,10,10,10,25,13,33,0.00,0,,319
2012-5-8,65,56,46,41,38,35,71,51,28,30.08,30.04,30.01,10,10,10,30,15,39,0.00,3,,305
2012-5-9,69,55,40,45,41,38,86,58,27,30.12,30.04,29.92,10,10,10,13,6,16,0.00,1,,355
2012-5-10,87,67,46,51,46,40,80,48,19,29.92,29.80,29.67,10,10,10,28,15,33,0.00,0,,148
2012-5-11,72,62,52,49,42,36,66,49,31,30.30,30.05,29.75,10,10,10,31,17,36,0.00,3,,332
2012-5-12,72,60,48,43,37,29,71,47,22,30.39,30.32,30.25,10,10,10,15,7,18,0.00,3,,6
2012-5-13,79,59,39,39,35,31,79,49,19,30.32,30.25,30.12,10,10,7,12,4,20,0.00,0,,260
2012-5-14,87,65,43,48,37,30,76,45,14,30.12,30.01,29.93,10,10,10,16,6,24,0.00,0,,232
2012-5-15,82,66,50,46,37,33,61,35,12,30.10,29.98,29.91,10,10,10,24,11,30,0.00,0,,18
2012-5-16,80,61,41,39,35,32,74,37,10,30.17,30.08,29.94,10,10,10,17,8,22,0.00,0,,150
2012-5-17,93,77,60,54,45,36,53,34,13,29.92,29.80,29.68,10,10,10,36,18,43,0.00,0,,168
2012-5-18,94,80,65,55,54,51,63,41,19,29.74,29.69,29.62,10,10,10,35,18,45,0.00,0,,162
2012-5-19,83,72,60,63,59,55,97,66,39,29.90,29.75,29.66,10,9,1,29,12,37,1.06,4,Rain-Thunderstorm,172
2012-5-20,70,60,50,59,50,41,90,70,27,30.27,30.06,29.88,10,10,10,28,13,33,T,5,Rain,349
2012-5-21,75,60,44,50,45,42,93,60,23,30.30,30.21,30.04,10,10,9,15,5,18,0.00,1,,161
2012-5-22,87,70,53,52,48,44,77,53,29,30.03,29.82,29.59,10,10,10,31,17,40,0.00,0,,167
2012-5-23,90,73,56,63,55,46,86,62,38,29.57,29.48,29.37,10,9,2,32,18,38,1.20,4,Rain-Thunderstorm,152
2012-5-24,69,60,51,59,55,50,100,77,53,29.81,29.54,29.43,10,9,2,35,8,45,1.09,6,Rain-Thunderstorm,2
2012-5-25,66,59,51,58,54,50,96,85,73,30.05,29.96,29.81,10,10,4,17,7,22,0.10,5,Rain-Thunderstorm,68
2012-5-26,89,74,58,74,63,54,94,77,53,29.97,29.83,29.67,10,10,5,24,15,35,0.18,4,Rain-Thunderstorm,120
2012-5-27,91,77,63,69,65,61,96,68,35,29.72,29.63,29.50,10,9,2,25,14,35,1.10,3,Rain-Thunderstorm,200
2012-5-28,74,66,57,63,58,49,100,80,31,29.86,29.75,29.63,10,8,2,22,7,29,0.30,4,Rain,305
2012-5-29,72,62,51,52,44,41,86,62,37,30.02,29.96,29.87,10,10,10,20,13,36,0.00,0,,323
2012-5-30,65,55,44,51,45,40,93,69,44,30.08,30.00,29.92,10,10,10,18,8,22,0.09,4,Rain,24
2012-5-31,64,55,46,50,47,44,93,73,52,30.09,30.03,29.98,10,9,2,17,7,25,0.08,7,Rain,16